NOAA 16 DEB, 42345

Orbit data source: Space-Track

NOAA 16 DEB, 42345 is space debris in SSO originally from a launch on Thu, 21 Sep 2000 UTC launched from the Air Force Western Test Range (AFWTR). Debris objects in space refer to the collection of defunct objects orbiting the Earth. Examples of debris include non-operational satellites, rocket bodies, and fragments generated from explosions, collisions, or faulty payload assembly.

Loading next visibility...
Identifier
42345, 2000-055QM
Orbit
SSO
Country
Flag of USUS
Related business
Manufacturer
Unknown
Mission
Spacecraft
Bus & Motor
Unknown
Mass
Unknown
Launch date (UTC)
2000-09-21 (26 years ago)
Launch vehicle
Unknown
Launch site
Air Force Western Test Range (AFWTR)
Object type
Payload
Rocket body
Debris
Shape & HBR
Unknown shape, 0.1 m
Radar Cross Section
Small (<0.1 m²)

Expand to show TLE details & history
Last TLE update: 6 days ago

TLE from 6 days ago
0 NOAA 16 DEB
1 42345U 00055QM  26167.17440760  .00030676  00000-0  30890-2 0  9993
2 42345  98.7125 321.7856 0016813 340.1992  19.8569 14.90999178530374
Epoch: 2026-06-16T04:11Z
TLE epoch observation values (Epoch: 2026-06-16T04:11:08.816Z)
Latitude
-0.00002°
Longitude
-5.45136°
Altitude
586.803 km
Speed
7.573 km/s
True Right ascension
21h 27m 08s
True Declination
0° 00' 00"
Sunlit
Object was in full shadow at epoch
Visualization orbit readout
Latitude
Unknown
Longitude
Unknown
Altitude
Unknown
Speed
Unknown
Apparent Right ascension
Unknown
Apparent Declination
Unknown
Sunlit
N/A
Visualization observer readout
Local Sidereal Time
21:37:21
Azimuth
Unknown
Elevation
Unknown
Doppler factor
Unknown
Orbital elements
Apogee altitude
603.602 km
Perigee altitude
580.165 km
Semi-major axis
6,970.02 km
Eccentricity
0.00168
Inclination
98.7125°
RAAN
321.7856°
Arg. of periapsis
340.1992°
True anomaly
19.92247°
Mean anomaly
19.8569°
Eccentric anomaly
19.88967°
Mean motion
3.72986 °/min
Orbital period
96.52 mins
BSTAR
0.003089
Loading maneuver chart data...
Computing Atmospheric mass density...
Loading historical data...
Loading historical data...
Loading historical data...
Loading historical data...
Loading historical data...
Loading historical data...
Loading historical data...

Documentation

Showing up to 5 results
|